�N����,����,�~����,�C��,���x,�C��,����,���ϕ���,�ő�u�ԕ���,�ő厞����,���˗�,�I�_���x,�n�����x,�ő啗���N��,DTYPE
"22/09/15","00:10",0.0,24.8,88.4,1008.8,323.4,2.0,3.7,340.9,0.00,22.8,26.9,"00:04:08",1
"22/09/15","00:20",0.0,24.7,88.5,1008.8,320.7,2.0,4.0,348.9,0.00,22.7,26.7,"00:11:04",1
"22/09/15","00:30",0.0,24.7,88.7,1008.8,325.9,2.0,3.2,342.2,0.00,22.7,26.9,"00:24:40",1
"22/09/15","00:40",0.0,24.6,88.8,1008.8,316.2,1.7,3.9,325.9,0.00,22.7,26.7,"00:33:20",1
"22/09/15","00:50",0.0,24.6,88.9,1008.6,297.8,1.6,2.7,342.7,0.00,22.7,26.6,"00:46:32",1
"22/09/15","01:00",0.0,24.6,89.0,1008.6,300.9,1.6,2.9,296.4,0.00,22.7,26.8,"00:51:28",1
"22/09/15","01:10",0.0,24.6,89.1,1008.6,315.9,2.0,3.1,326.2,0.00,22.7,26.8,"01:08:08",1
"22/09/15","01:20",0.0,24.6,89.0,1008.3,311.6,1.8,3.6,324.3,0.00,22.7,26.6,"01:13:04",1
"22/09/15","01:30",0.0,24.6,89.0,1008.3,309.7,1.8,3.3,324.8,0.00,22.7,26.6,"01:28:16",1
"22/09/15","01:40",0.0,24.5,89.1,1008.8,289.7,1.1,2.0,320.6,0.00,22.6,26.5,"01:30:24",1
"22/09/15","01:50",0.0,24.4,89.2,1008.6,297.8,1.3,2.8,324.8,0.00,22.5,26.6,"01:48:00",1
"22/09/15","02:00",0.0,24.3,89.3,1008.6,298.9,1.1,2.0,316.6,0.00,22.5,26.6,"01:57:28",1
"22/09/15","02:10",0.0,24.2,89.5,1008.6,308.6,1.6,2.7,326.5,0.00,22.4,26.5,"02:04:32",1
"22/09/15","02:20",0.0,24.1,89.6,1008.8,306.5,1.2,2.1,344.8,0.00,22.3,26.4,"02:10:08",1
"22/09/15","02:30",0.0,24.0,89.7,1008.8,292.6,1.0,1.7,311.5,0.00,22.2,26.4,"02:20:08",1
"22/09/15","02:40",0.0,24.0,89.9,1008.1,304.1,1.2,3.1,343.8,0.00,22.3,26.4,"02:37:12",1
"22/09/15","02:50",0.0,24.0,90.0,1008.6,290.4,1.0,1.4,263.5,0.00,22.3,26.2,"02:44:48",1
"22/09/15","03:00",0.0,23.8,90.1,1008.6,305.3,1.0,1.2,323.5,0.00,22.1,26.2,"02:55:44",1
"22/09/15","03:10",0.0,23.9,90.3,1008.8,303.8,1.1,1.9,261.8,0.00,22.3,26.2,"03:06:16",1
"22/09/15","03:20",0.0,23.9,90.4,1008.8,311.1,1.2,1.8,322.2,0.00,22.3,26.3,"03:16:40",1
"22/09/15","03:30",0.0,23.7,90.5,1008.6,328.8,1.1,1.6,334.6,0.00,22.1,26.2,"03:28:00",1
"22/09/15","03:40",0.0,23.5,90.7,1008.3,327.1,0.8,1.4,312.8,0.00,21.9,26.2,"03:31:44",1
"22/09/15","03:50",0.0,23.4,91.0,1008.6,304.8,0.6,1.6,312.7,0.00,21.9,26.2,"03:49:28",1
"22/09/15","04:00",0.0,23.3,91.1,1008.6,319.4,1.1,2.0,315.3,0.00,21.8,26.1,"03:50:32",1
"22/09/15","04:10",0.0,23.3,91.2,1008.6,326.0,0.8,1.9,314.2,0.00,21.8,26.1,"04:06:08",1
"22/09/15","04:20",0.0,23.3,91.5,1008.8,319.9,1.0,1.8,318.7,0.00,21.9,26.0,"04:12:32",1
"22/09/15","04:30",0.0,23.3,91.7,1008.3,314.4,1.0,1.8,326.6,0.00,21.9,26.1,"04:27:04",1
"22/09/15","04:40",0.0,23.3,91.8,1008.6,320.2,0.6,1.3,333.5,0.00,21.9,25.8,"04:32:48",1
"22/09/15","04:50",0.0,23.3,92.0,1008.1,327.9,1.1,1.7,341.1,0.00,22.0,26.0,"04:47:52",1
"22/09/15","05:00",0.0,23.0,92.1,1008.1,297.7,0.7,1.2,334.8,0.00,21.7,26.1,"04:51:52",1
"22/09/15","05:10",0.0,23.1,92.4,1008.3,309.6,1.2,1.9,326.7,0.00,21.8,26.0,"05:06:32",1
"22/09/15","05:20",0.0,23.1,92.4,1008.1,302.8,0.7,1.6,332.6,0.00,21.8,26.0,"05:12:08",1
"22/09/15","05:30",0.0,23.0,92.6,1008.3,332.1,1.1,1.4,347.7,0.00,21.8,25.9,"05:26:00",1
"22/09/15","05:40",0.0,23.0,92.7,1008.3,321.4,1.1,1.7,331.0,0.00,21.8,26.1,"05:32:08",1
"22/09/15","05:50",0.0,22.9,92.8,1008.3,316.3,1.1,1.6,320.2,0.00,21.7,26.0,"05:48:24",1
"22/09/15","06:00",0.0,22.8,92.9,1008.3,285.8,0.6,1.0,317.0,0.00,21.6,26.0,"05:50:08",1
"22/09/15","06:10",0.0,22.9,93.1,1008.3,329.4,1.1,1.3,322.2,0.00,21.8,25.6,"06:01:28",1
"22/09/15","06:20",0.0,22.9,93.2,1008.6,310.0,1.0,1.3,340.3,0.00,21.8,25.8,"06:10:40",1
"22/09/15","06:30",0.0,22.9,93.3,1008.6,296.0,1.1,2.0,325.0,0.00,21.8,25.7,"06:24:00",1
"22/09/15","06:40",0.0,23.3,93.5,1008.3,307.6,1.1,2.0,345.2,0.00,22.2,25.8,"06:30:56",1
"22/09/15","06:50",0.0,23.5,93.5,1008.6,323.7,1.2,2.1,330.5,0.00,22.4,25.5,"06:44:56",1
"22/09/15","07:00",0.0,23.6,93.5,1008.8,316.0,0.8,1.6,347.7,0.01,22.5,25.8,"06:50:16",1
"22/09/15","07:10",0.0,23.8,93.5,1008.6,340.7,0.8,2.0,333.6,0.01,22.7,25.7,"07:05:36",1
"22/09/15","07:20",0.0,24.1,93.5,1008.6,329.2,1.0,1.6,339.4,0.03,23.0,25.6,"07:18:16",1
"22/09/15","07:30",0.0,24.7,93.6,1008.6,323.8,0.7,1.2,339.4,0.06,23.6,25.7,"07:21:44",1
"22/09/15","07:40",0.0,25.5,93.3,1008.3,296.8,0.6,1.9,337.4,0.08,24.4,25.8,"07:35:04",1
"22/09/15","07:50",0.0,26.0,92.2,1008.3,331.7,0.6,1.9,340.6,0.08,24.7,25.6,"07:42:16",1
"22/09/15","08:00",0.0,26.3,91.1,1008.3,106.0,0.5,1.4,84.8,0.11,24.8,25.8,"07:59:28",1
"22/09/15","08:10",0.0,26.5,89.3,1008.3,138.3,1.0,2.1,173.9,0.14,24.6,25.7,"08:05:12",1
"22/09/15","08:20",0.0,27.3,86.2,1007.8,133.0,1.1,2.7,113.8,0.15,24.8,25.7,"08:13:44",1
"22/09/15","08:30",0.0,28.0,81.5,1007.8,129.7,1.2,2.6,147.7,0.19,24.6,25.7,"08:27:36",1
"22/09/15","08:40",0.0,28.4,77.6,1006.9,128.3,1.1,2.2,120.0,0.17,24.1,25.8,"08:31:04",1
"22/09/15","08:50",0.0,28.8,75.5,1007.4,124.2,0.7,2.0,116.5,0.19,24.1,25.7,"08:48:48",1
"22/09/15","09:00",0.0,29.0,73.5,1007.1,79.8,0.8,1.7,98.1,0.18,23.8,25.8,"08:56:48",1
"22/09/15","09:10",0.0,29.1,72.0,1007.1,125.1,1.0,2.8,179.7,0.22,23.6,26.1,"09:08:32",1
"22/09/15","09:20",0.0,29.7,71.0,1007.6,133.0,0.8,3.4,153.4,0.25,23.9,25.8,"09:16:00",1
"22/09/15","09:30",0.0,29.8,69.4,1007.8,86.5,0.8,2.1,356.0,0.24,23.6,26.0,"09:21:28",1
"22/09/15","09:40",0.0,30.0,68.3,1008.1,110.2,1.2,2.5,133.8,0.28,23.6,26.1,"09:36:00",1
"22/09/15","09:50",0.0,30.1,68.4,1008.1,120.4,1.1,2.8,139.3,0.28,23.7,26.1,"09:42:40",1
"22/09/15","10:00",0.0,30.0,68.7,1008.1,113.5,1.1,3.1,120.3,0.21,23.7,26.1,"09:52:32",1
"22/09/15","10:10",0.0,30.2,68.3,1008.1,118.8,1.1,3.4,145.9,0.32,23.8,26.3,"10:00:02",1
"22/09/15","10:20",0.0,30.9,67.6,1008.3,105.9,1.1,2.7,41.6,0.43,24.2,26.2,"10:13:44",1
"22/09/15","10:30",0.0,30.8,67.2,1008.3,127.3,1.5,3.2,92.8,0.39,24.1,26.3,"10:25:20",1
"22/09/15","10:40",0.0,31.0,64.4,1008.3,118.5,1.5,3.9,127.3,0.46,23.5,26.2,"10:37:52",1
"22/09/15","10:50",0.0,30.3,66.2,1008.3,127.9,1.0,2.1,123.6,0.20,23.3,26.3,"10:41:52",1
"22/09/15","11:00",0.0,30.6,66.8,1008.1,96.0,0.7,2.0,97.7,0.31,23.8,26.3,"10:54:48",1
"22/09/15","11:10",0.0,30.9,64.9,1008.1,89.9,1.0,2.2,55.6,0.28,23.6,26.5,"11:02:00",1
"22/09/15","11:20",0.0,31.7,63.3,1008.1,76.8,1.2,3.5,22.8,0.48,23.9,26.3,"11:16:16",1
"22/09/15","11:30",0.0,31.2,62.9,1008.3,135.7,1.5,3.5,127.9,0.35,23.3,26.7,"11:21:28",1
"22/09/15","11:40",0.0,31.8,61.3,1008.6,100.4,0.8,2.1,351.6,0.50,23.5,26.7,"11:36:00",1
"22/09/15","11:50",0.0,32.3,61.4,1008.3,114.7,0.8,2.1,57.3,0.42,24.0,26.7,"11:41:28",1
"22/09/15","12:00",0.0,33.0,59.0,1008.3,60.0,1.1,2.9,47.1,0.59,24.0,26.7,"11:55:52",1
"22/09/15","12:10",0.0,33.1,56.7,1008.1,67.6,1.1,2.9,113.9,0.49,23.4,26.6,"12:09:12",1
"22/09/15","12:20",0.0,33.2,56.9,1008.1,57.6,1.1,3.1,0.7,0.53,23.5,27.0,"12:11:44",1
"22/09/15","12:30",0.0,33.1,54.7,1008.3,97.5,1.0,2.6,10.8,0.44,22.8,26.9,"12:28:48",1
"22/09/15","12:40",0.0,32.4,56.4,1008.1,58.9,1.0,2.7,59.3,0.33,22.7,26.8,"12:38:48",1
"22/09/15","12:50",0.0,32.4,56.0,1007.6,42.9,1.3,2.8,31.3,0.42,22.5,27.2,"12:48:00",1
"22/09/15","13:00",0.0,32.2,57.4,1007.6,100.2,0.7,2.0,342.4,0.21,22.8,27.1,"12:50:08",1
"22/09/15","13:10",0.0,31.9,57.6,1007.4,92.8,0.7,2.6,28.1,0.20,22.5,27.1,"13:06:24",1
"22/09/15","13:20",0.0,31.9,58.3,1006.7,112.9,0.8,2.4,123.4,0.23,22.7,27.2,"13:12:00",1
"22/09/15","13:30",0.0,31.4,59.2,1006.7,117.6,0.8,1.9,146.7,0.16,22.5,27.3,"13:28:00",1
"22/09/15","13:40",0.0,31.9,58.2,1006.2,128.7,1.0,2.4,86.1,0.25,22.7,27.5,"13:36:08",1
"22/09/15","13:50",0.0,33.1,56.9,1006.7,115.9,1.0,2.7,69.2,0.50,23.4,27.6,"13:49:28",1
"22/09/15","14:00",0.0,33.4,54.6,1006.7,109.0,1.2,3.4,122.7,0.41,23.0,27.6,"13:57:20",1
"22/09/15","14:10",0.0,33.6,52.1,1006.7,85.4,1.0,2.2,118.9,0.39,22.5,27.6,"14:00:56",1
"22/09/15","14:20",0.0,33.3,53.9,1006.9,112.1,0.8,2.4,124.0,0.29,22.7,27.6,"14:17:04",1
"22/09/15","14:30",0.0,33.5,54.5,1006.7,129.9,1.0,2.1,157.0,0.42,23.1,27.6,"14:23:52",1
"22/09/15","14:40",0.0,33.2,53.9,1006.9,105.8,1.1,2.4,1.7,0.27,22.6,27.7,"14:33:12",1
"22/09/15","14:50",0.0,32.8,55.2,1006.7,117.8,1.2,2.9,124.5,0.31,22.7,27.8,"14:48:56",1
"22/09/15","15:00",0.0,33.7,54.0,1006.2,141.7,1.2,2.9,106.8,0.45,23.1,27.8,"14:57:36",1
"22/09/15","15:10",0.0,34.0,52.2,1006.7,48.6,1.3,2.9,35.9,0.42,22.9,28.0,"15:04:48",1
"22/09/15","15:20",0.0,33.7,54.0,1006.7,41.4,1.2,3.1,3.8,0.32,23.1,27.7,"15:14:56",1
"22/09/15","15:30",0.0,34.1,52.9,1006.4,85.0,0.8,2.5,24.5,0.35,23.2,28.0,"15:25:12",1
"22/09/15","15:40",0.0,33.2,54.4,1006.0,88.6,1.0,1.8,146.3,0.17,22.8,27.9,"15:32:40",1
"22/09/15","15:50",0.0,32.9,55.8,1006.0,123.6,1.0,3.2,124.8,0.25,22.9,28.0,"15:41:28",1
"22/09/15","16:00",0.0,32.6,56.0,1006.2,152.9,1.3,4.4,217.7,0.25,22.7,28.2,"15:57:52",1
"22/09/15","16:10",0.0,32.9,55.8,1006.0,94.4,0.8,2.2,128.2,0.21,22.9,28.1,"16:00:16",1
"22/09/15","16:20",0.0,32.5,56.6,1005.7,118.5,1.1,2.9,139.8,0.15,22.8,28.1,"16:15:20",1
"22/09/15","16:30",0.0,32.6,55.9,1005.5,74.8,1.1,2.5,120.8,0.17,22.7,28.0,"16:22:24",1
"22/09/15","16:40",0.0,32.3,58.1,1005.2,123.3,0.7,2.2,110.9,0.10,23.0,28.1,"16:32:40",1
"22/09/15","16:50",0.0,32.3,57.3,1005.7,112.0,1.0,3.2,92.4,0.14,22.8,28.3,"16:48:00",1
"22/09/15","17:00",0.0,32.0,57.9,1005.2,119.4,1.2,2.7,44.3,0.12,22.7,28.1,"16:59:28",1
"22/09/15","17:10",0.0,31.7,58.6,1004.8,112.9,1.2,2.6,118.0,0.10,22.6,28.1,"17:09:28",1
"22/09/15","17:20",0.0,31.5,60.2,1004.8,95.6,1.0,2.7,74.3,0.08,22.9,28.1,"17:17:20",1
"22/09/15","17:30",0.0,31.3,60.3,1004.3,113.5,1.1,3.2,72.7,0.06,22.7,28.1,"17:27:28",1
"22/09/15","17:40",0.0,31.3,61.0,1004.3,63.3,1.0,2.5,27.3,0.04,22.9,28.1,"17:34:32",1
"22/09/15","17:50",0.0,31.0,62.2,1004.3,38.9,1.1,2.2,37.5,0.03,23.0,28.2,"17:40:56",1
"22/09/15","18:00",0.0,30.5,63.3,1004.3,35.1,0.8,2.2,15.2,0.02,22.8,28.1,"17:50:32",1
"22/09/15","18:10",0.0,30.1,64.6,1004.3,57.2,0.8,2.0,71.2,0.01,22.7,28.1,"18:02:00",1
"22/09/15","18:20",0.0,29.6,65.9,1003.8,51.8,0.8,2.7,46.4,0.00,22.6,28.1,"18:10:56",1
"22/09/15","18:30",0.0,29.3,66.9,1003.8,36.7,0.6,1.9,87.2,0.00,22.6,28.1,"18:29:36",1
"22/09/15","18:40",0.0,28.8,67.5,1003.6,99.3,1.1,3.1,80.8,0.00,22.2,28.0,"18:35:36",1
"22/09/15","18:50",0.0,28.6,68.1,1003.6,89.5,1.0,2.2,95.8,0.00,22.2,27.8,"18:40:40",1
"22/09/15","19:00",0.0,28.5,68.4,1004.5,93.2,1.0,2.2,117.5,0.00,22.2,27.8,"18:55:12",1
"22/09/15","19:10",0.0,28.2,69.2,1004.5,88.5,1.1,2.7,109.9,0.00,22.1,27.8,"19:03:44",1
"22/09/15","19:20",0.0,28.0,70.2,1004.8,76.4,0.8,1.8,93.0,0.00,22.1,27.7,"19:13:36",1
"22/09/15","19:30",0.0,27.8,71.3,1004.8,74.5,0.7,1.9,105.5,0.00,22.2,28.0,"19:27:52",1
"22/09/15","19:40",0.0,27.7,72.3,1005.2,9.6,0.5,1.6,57.3,0.00,22.3,27.7,"19:30:08",1
"22/09/15","19:50",0.0,27.3,73.6,1005.5,357.2,0.6,1.9,347.2,0.00,22.2,27.8,"19:45:52",1
"22/09/15","20:00",0.0,27.0,74.8,1005.5,353.3,0.7,1.6,355.9,0.00,22.2,27.7,"19:50:32",1
"22/09/15","20:10",0.0,26.7,75.7,1005.7,348.5,0.8,1.8,352.5,0.00,22.1,27.6,"20:05:36",1
"22/09/15","20:20",0.0,26.6,76.3,1006.0,18.5,1.0,1.8,66.1,0.00,22.1,27.7,"20:16:32",1
"22/09/15","20:30",0.0,26.5,76.4,1006.0,5.1,0.7,1.9,0.9,0.00,22.1,27.5,"20:21:20",1
"22/09/15","20:40",0.0,26.3,77.0,1006.0,353.1,0.8,1.7,348.8,0.00,22.0,27.4,"20:31:44",1
"22/09/15","20:50",0.0,26.3,77.0,1006.2,33.6,0.8,2.1,347.5,0.00,22.0,27.3,"20:43:04",1
"22/09/15","21:00",0.0,26.3,76.7,1006.7,38.8,0.7,1.9,355.7,0.00,21.9,27.2,"20:55:52",1
"22/09/15","21:10",0.0,26.2,76.7,1006.7,39.8,1.0,1.8,67.7,0.00,21.8,27.2,"21:05:36",1
"22/09/15","21:20",0.0,26.2,76.9,1006.9,18.0,0.8,2.1,68.9,0.00,21.9,27.2,"21:15:28",1
"22/09/15","21:30",0.0,26.0,77.7,1006.9,32.3,0.7,2.1,57.9,0.00,21.8,27.3,"21:26:48",1
"22/09/15","21:40",0.0,25.8,78.3,1006.7,1.5,0.3,1.0,67.3,0.00,21.8,27.1,"21:30:24",1
"22/09/15","21:50",0.0,25.5,79.2,1006.9,16.6,0.5,1.4,3.8,0.00,21.7,27.2,"21:44:40",1
"22/09/15","22:00",0.0,25.3,80.1,1007.1,22.1,0.7,2.0,12.9,0.00,21.7,27.0,"21:52:48",1
"22/09/15","22:10",0.0,25.2,80.6,1006.9,2.1,0.5,1.3,311.6,0.00,21.7,27.1,"22:01:12",1
"22/09/15","22:20",0.0,25.0,81.2,1007.1,354.8,0.6,1.6,353.7,0.00,21.6,27.0,"22:13:44",1
"22/09/15","22:30",0.0,24.9,81.5,1006.7,346.6,0.6,1.9,24.7,0.00,21.6,27.0,"22:23:36",1
"22/09/15","22:40",0.0,24.8,81.8,1007.1,351.7,0.7,2.1,12.2,0.00,21.5,27.0,"22:35:12",1
"22/09/15","22:50",0.0,24.9,81.7,1007.1,6.0,0.8,1.9,355.1,0.00,21.6,26.9,"22:46:16",1
"22/09/15","23:00",0.0,24.9,81.6,1007.1,344.4,0.7,1.7,355.8,0.00,21.6,26.7,"22:50:16",1
"22/09/15","23:10",0.0,24.7,81.6,1007.1,327.4,0.3,1.2,346.7,0.00,21.4,26.8,"23:03:44",1
"22/09/15","23:20",0.0,24.6,82.0,1007.4,351.1,0.7,1.3,336.8,0.00,21.4,26.7,"23:15:36",1
"22/09/15","23:30",0.0,24.5,82.3,1007.4,339.2,0.7,1.3,343.0,0.00,21.3,26.9,"23:20:08",1
"22/09/15","23:40",0.0,24.4,82.7,1006.9,350.4,0.8,1.7,42.6,0.00,21.3,26.9,"23:35:12",1
"22/09/15","23:50",0.0,24.5,82.8,1006.9,341.3,0.6,1.6,322.1,0.00,21.4,26.7,"23:40:08",1
"22/09/15","24:00",0.0,24.7,82.7,1007.1,340.8,0.5,1.4,353.5,0.00,21.6,26.5,"23:53:36",1
